TimeEST,TemperatureF,Dew PointF,Humidity,Sea Level PressureIn,VisibilityMPH,Wind Direction,Wind SpeedMPH,Gust SpeedMPH,PrecipitationIn,Events,Conditions,WindDirDegrees,DateUTC
12:51 AM,31.1,29.8,95,30.22,1.0,North,15.0,-,0.02,Snow,Light Snow,360,2013-11-12 05:51:00
1:51 AM,30.0,28.6,94,30.24,1.0,North,11.5,-,0.03,Snow,Light Snow,350,2013-11-12 06:51:00
1:58 AM,30.2,28.4,93,30.21,2.0,North,11.5,-,N/A,Snow,Light Snow,350,2013-11-12 06:58:00
2:51 AM,30.0,28.0,92,30.26,3.0,NNW,10.4,-,0.04,Snow,Light Snow,330,2013-11-12 07:51:00
3:51 AM,30.0,27.5,90,30.27,3.0,WNW,6.9,-,0.02,Snow,Light Snow,300,2013-11-12 08:51:00
4:42 AM,30.2,28.4,93,30.25,1.5,WNW,6.9,-,0.02,Snow,Light Snow,300,2013-11-12 09:42:00
4:51 AM,30.0,27.5,90,30.29,1.5,WNW,6.9,-,0.01,Snow,Light Snow,300,2013-11-12 09:51:00
5:51 AM,29.1,25.7,87,30.32,3.0,WNW,6.9,-,0.03,Snow,Light Snow,300,2013-11-12 10:51:00
6:51 AM,29.1,25.7,87,30.35,10.0,WNW,6.9,-,0.00,,Overcast,300,2013-11-12 11:51:00
7:26 AM,28.4,23.0,80,30.34,1.0,WNW,6.9,-,0.00,Snow,Light Snow,300,2013-11-12 12:26:00
7:40 AM,26.6,23.0,86,30.34,3.0,NW,9.2,-,N/A,Snow,Light Snow,320,2013-11-12 12:40:00
7:51 AM,27.0,24.1,89,30.39,5.0,NW,6.9,-,N/A,Snow,Light Snow,310,2013-11-12 12:51:00
8:09 AM,28.4,24.8,86,30.36,1.5,NW,9.2,-,0.00,Snow,Light Snow,320,2013-11-12 13:09:00
8:23 AM,26.6,24.8,93,30.37,0.8,NW,10.4,-,0.01,Snow,Light Snow,320,2013-11-12 13:23:00
8:41 AM,26.6,24.8,93,30.37,3.0,WNW,6.9,-,0.03,Snow,Light Snow,300,2013-11-12 13:41:00
8:51 AM,28.0,25.0,88,30.42,7.0,NW,6.9,-,0.03,Snow,Light Snow,320,2013-11-12 13:51:00
9:51 AM,28.0,26.1,92,30.44,5.0,NNW,9.2,-,0.01,Snow,Light Snow,340,2013-11-12 14:51:00
10:51 AM,28.9,27.0,92,30.44,7.0,North,9.2,-,0.00,Snow,Light Snow,360,2013-11-12 15:51:00
11:05 AM,30.2,28.4,93,30.40,0.8,North,6.9,-,N/A,Snow,Light Snow,360,2013-11-12 16:05:00
11:51 AM,30.0,27.0,88,30.44,5.0,North,9.2,-,0.02,Snow,Light Snow,350,2013-11-12 16:51:00
12:19 PM,30.2,28.4,93,30.40,2.0,NNW,9.2,-,0.00,Snow,Light Snow,340,2013-11-12 17:19:00
12:40 PM,30.2,28.4,93,30.39,5.0,North,11.5,-,0.00,Snow,Light Snow,360,2013-11-12 17:40:00
12:51 PM,30.0,28.0,92,30.44,7.0,North,11.5,-,0.00,,Mostly Cloudy,360,2013-11-12 17:51:00
1:34 PM,32.0,28.4,87,30.40,2.0,North,11.5,-,0.00,Snow,Light Snow,360,2013-11-12 18:34:00
1:51 PM,32.0,30.0,92,30.45,3.0,NNE,9.2,-,0.00,Snow,Light Snow,20,2013-11-12 18:51:00
1:56 PM,32.0,30.2,93,30.40,1.0,NNE,6.9,-,0.00,Snow,Light Snow,20,2013-11-12 18:56:00
2:40 PM,32.0,30.2,93,30.41,5.0,North,6.9,-,0.01,Snow,Light Snow,360,2013-11-12 19:40:00
2:51 PM,32.0,30.0,92,30.45,7.0,North,9.2,-,0.01,,Mostly Cloudy,10,2013-11-12 19:51:00
3:51 PM,32.0,22.1,67,30.47,8.0,NNW,15.0,-,0.00,Snow,Light Snow,340,2013-11-12 20:51:00
4:51 PM,31.1,19.0,61,30.48,8.0,NNW,15.0,-,0.00,,Scattered Clouds,340,2013-11-12 21:51:00
5:51 PM,31.1,19.0,61,30.48,8.0,NW,13.8,-,N/A,,Scattered Clouds,320,2013-11-12 22:51:00
6:51 PM,31.1,19.0,61,30.49,5.0,NW,13.8,-,0.00,Snow,Light Snow,320,2013-11-12 23:51:00
7:12 PM,28.4,21.2,74,30.45,1.0,WNW,13.8,-,0.01,Snow,Light Snow,300,2013-11-13 00:12:00
7:28 PM,28.4,21.2,74,30.45,0.5,WNW,13.8,-,0.01,Snow,Snow,300,2013-11-13 00:28:00
7:43 PM,28.4,23.0,80,30.45,3.0,WNW,13.8,-,0.03,Snow,Light Snow,300,2013-11-13 00:43:00
7:51 PM,28.9,23.0,78,30.50,3.0,WNW,13.8,-,0.03,Snow,Light Snow,300,2013-11-13 00:51:00
8:51 PM,28.9,22.1,76,30.51,3.0,WNW,11.5,-,0.00,Snow,Light Snow,290,2013-11-13 01:51:00
9:51 PM,28.9,19.9,69,30.52,3.0,WNW,11.5,-,0.00,Snow,Light Snow,290,2013-11-13 02:51:00
10:51 PM,28.9,21.0,72,30.52,2.0,WNW,11.5,-,0.01,Snow,Light Snow,290,2013-11-13 03:51:00
11:51 PM,28.4,21.2,74,30.51,6.0,WNW,11.5,-,0.00,Snow,Light Snow,290,2013-11-13 04:51:00